STARLINK-2021 (47604 NORAD) Tracking and Keplerian Element Data
This shows tracking and keplerian element data for the satellite.
Feedback or suggestion? Click here.
Element | Value |
Catalog | 47604 |
Name | STARLINK-2021 |
Epoch Orbit | 407 |
Epoch Day | 57.16667824 |
Epoch Year | 2021 |
RAAN | 16.397 |
Inclination | 53.0534 |
Eccentricity | 0.0001123 |
Argument of Perigee | 67.635 |
Mean Anonmoly | 280.4407 |
Mean Motion | 15.62758919 |
Decay Rate | -0.00079437 |
L1 | 1 47604U 21009BJ 21057.16667824 -.00079437 00000-0 -87004-3 0 9992 |
L2 | 2 47604 53.0534 16.3970 0001123 67.6350 280.4407 15.62758919 4072 |
Live tracking and technical data element details for STARLINK-2021 (NORAD 47604). STARLINK-2021 can be tracked NOW for your location showing map with azimuth and elevation plus other details from your city location.
Track the satellite on the map from your city or location and see movement details for azimuth, elevation, latitude, longitude, range, height, and movement on the map or in text.
IsCatalogInMostPopularTable: catalog: 47604, numindb: 1
Update: records affected: 1
GetName: 47604 STARLINK-2021
Hit Count: updated at: Fri, 26 Feb 2021 09:38:47 GMT